| time (UTC) | temp F | wind direction | speed MPH | gust MPH | rain 1hr in | rain 24hr in | rain mn in | humidity % | barometer mb |
| 20260507142025 | 56 | 0 | 0.0 | 6.0 | 0.00 | 0.47 | 0.09 | 63 | 1006.0 |
| 20260507141535 | 56 | 0 | 1.0 | 7.0 | 0.00 | 0.47 | 0.09 | 63 | 1006.0 |
| 20260507141025 | 56 | 0 | 0.0 | 7.0 | 0.00 | 0.47 | 0.09 | 63 | 1006.0 |
| 20260507140528 | 56 | 0 | 2.0 | 7.0 | 0.00 | 0.47 | 0.09 | 65 | 1006.0 |
| 20260507140037 | 55 | 0 | 2.0 | 9.0 | 0.00 | 0.47 | 0.09 | 63 | 1006.1 |
| 20260507135530 | 55 | 313 | 0.0 | 9.0 | 0.00 | 0.47 | 0.09 | 65 | 1006.1 |
| 20260507135026 | 55 | 331 | 3.0 | 8.0 | 0.00 | 0.47 | 0.09 | 65 | 1006.1 |
| 20260507134542 | 55 | 0 | 1.0 | 7.0 | 0.00 | 0.47 | 0.09 | 65 | 1006.2 |
| 20260507134028 | 55 | 0 | 1.0 | 5.0 | 0.00 | 0.47 | 0.09 | 67 | 1006.2 |
| 20260507133530 | 55 | 301 | 1.0 | 5.0 | 0.00 | 0.47 | 0.09 | 67 | 1006.2 |
| 20260507133040 | 54 | 0 | 0.0 | 5.0 | 0.00 | 0.47 | 0.09 | 70 | 1006.1 |
| 20260507132526 | 54 | 0 | 0.0 | 7.0 | 0.00 | 0.47 | 0.09 | 71 | 1006.2 |
| 20260507132025 | 54 | 0 | 0.0 | 7.0 | 0.00 | 0.47 | 0.09 | 71 | 1006.2 |
| 20260507131540 | 53 | 0 | 0.0 | 5.0 | 0.00 | 0.47 | 0.09 | 71 | 1006.2 |
| 20260507131026 | 53 | 267 | 1.0 | 5.0 | 0.00 | 0.47 | 0.09 | 72 | 1006.2 |
| 20260507130527 | 53 | 0 | 0.0 | 5.0 | 0.00 | 0.47 | 0.09 | 73 | 1006.2 |
| 20260507130056 | 52 | 0 | 0.0 | 5.0 | 0.00 | 0.47 | 0.09 | 74 | 1006.2 |
| 20260507125528 | 52 | 0 | 0.0 | 5.0 | 0.00 | 0.47 | 0.09 | 76 | 1006.3 |
| 20260507125023 | 52 | 0 | 0.0 | 5.0 | 0.00 | 0.47 | 0.09 | 76 | 1006.2 |
| 20260507124540 | 51 | 0 | 0.0 | 4.0 | 0.00 | 0.47 | 0.09 | 79 | 1006.4 |
| 20260507124026 | 51 | 0 | 0.0 | 6.0 | 0.00 | 0.47 | 0.09 | 81 | 1006.4 |
| 20260507123523 | 50 | 0 | 0.0 | 6.0 | 0.00 | 0.47 | 0.09 | 82 | 1006.5 |
| 20260507123057 | 50 | 0 | 0.0 | 1.0 | 0.00 | 0.47 | 0.09 | 85 | 1006.5 |
| 20260507122526 | 49 | 0 | 0.0 | 1.0 | 0.00 | 0.47 | 0.09 | 83 | 1006.3 |
| 20260507122026 | 49 | 0 | 0.0 | 3.0 | 0.00 | 0.47 | 0.09 | 86 | 1006.4 |
| 20260507121550 | 48 | 0 | 0.0 | 5.0 | 0.00 | 0.47 | 0.09 | 89 | 1006.5 |
| 20260507121026 | 47 | 0 | 1.0 | 5.0 | 0.00 | 0.47 | 0.09 | 89 | 1006.4 |
| 20260507120533 | 47 | 249 | 0.0 | 3.0 | 0.00 | 0.47 | 0.09 | 92 | 1006.5 |
| 20260507120041 | 46 | 0 | 0.0 | 3.0 | 0.00 | 0.47 | 0.09 | 92 | 1006.6 |
| 20260507115526 | 46 | 0 | 1.0 | 3.0 | 0.00 | 0.47 | 0.09 | 94 | 1006.6 |
| 20260507115029 | 46 | 0 | 0.0 | 2.0 | 0.00 | 0.47 | 0.09 | 94 | 1006.5 |
| 20260507114539 | 45 | 0 | 0.0 | 2.0 | 0.00 | 0.47 | 0.09 | 94 | 1006.5 |
| 20260507114025 | 45 | 0 | 0.0 | 0.0 | 0.00 | 0.47 | 0.09 | 94 | 1006.6 |
| 20260507113526 | 45 | 0 | 0.0 | 0.0 | 0.00 | 0.47 | 0.09 | 94 | 1006.5 |
| 20260507113040 | 45 | 0 | 0.0 | 0.0 | 0.00 | 0.47 | 0.09 | 95 | 1006.6 |
| 20260507112527 | 45 | 0 | 0.0 | 0.0 | 0.00 | 0.47 | 0.09 | 95 | 1006.8 |
| 20260507112026 | 45 | 0 | 0.0 | 0.0 | 0.00 | 0.47 | 0.09 | 95 | 1006.8 |
| 20260507111538 | 45 | 0 | 0.0 | 0.0 | 0.00 | 0.47 | 0.09 | 95 | 1006.9 |
| 20260507111026 | 45 | 0 | 0.0 | 0.0 | 0.00 | 0.47 | 0.09 | 95 | 1006.9 |
| 20260507110526 | 45 | 0 | 0.0 | 0.0 | 0.00 | 0.47 | 0.09 | 95 | 1006.6 |
| 20260507110036 | 45 | 0 | 0.0 | 0.0 | 0.00 | 0.47 | 0.09 | 95 | 1006.7 |
| 20260507105525 | 45 | 0 | 0.0 | 0.0 | 0.00 | 0.47 | 0.09 | 95 | 1006.9 |
| 20260507105026 | 45 | 0 | 0.0 | 0.0 | 0.00 | 0.47 | 0.09 | 95 | 1007.1 |
| 20260507104536 | 45 | 0 | 0.0 | 0.0 | 0.00 | 0.47 | 0.09 | 95 | 1007.0 |
| 20260507104028 | 44 | 0 | 0.0 | 0.0 | 0.00 | 0.47 | 0.09 | 95 | 1006.9 |
| 20260507103526 | 44 | 0 | 0.0 | 0.0 | 0.00 | 0.47 | 0.09 | 95 | 1006.8 |
| 20260507103040 | 44 | 0 | 0.0 | 0.0 | 0.00 | 0.47 | 0.09 | 95 | 1007.2 |
| 20260507102528 | 44 | 0 | 0.0 | 0.0 | 0.00 | 0.47 | 0.09 | 95 | 1006.7 |
| 20260507102026 | 44 | 0 | 0.0 | 0.0 | 0.00 | 0.47 | 0.09 | 95 | 1006.7 |
| 20260507101541 | 44 | 0 | 0.0 | 0.0 | 0.00 | 0.47 | 0.09 | 95 | 1006.9 |
| 20260507101028 | 44 | 0 | 0.0 | 0.0 | 0.00 | 0.47 | 0.09 | 95 | 1006.7 |
| 20260507100525 | 44 | 0 | 0.0 | 0.0 | 0.00 | 0.47 | 0.09 | 95 | 1007.1 |
| 20260507100049 | 44 | 0 | 0.0 | 0.0 | 0.00 | 0.47 | 0.09 | 95 | 1006.9 |
| 20260507095525 | 44 | 0 | 0.0 | 0.0 | 0.00 | 0.47 | 0.09 | 95 | 1006.6 |
| 20260507095025 | 44 | 0 | 0.0 | 0.0 | 0.00 | 0.47 | 0.09 | 95 | 1006.2 |
| 20260507094537 | 44 | 0 | 0.0 | 0.0 | 0.00 | 0.47 | 0.09 | 94 | 1006.2 |
| 20260507094025 | 44 | 0 | 0.0 | 0.0 | 0.00 | 0.47 | 0.09 | 94 | 1006.3 |
| 20260507093527 | 44 | 0 | 0.0 | 0.0 | 0.00 | 0.47 | 0.09 | 94 | 1006.1 |
| 20260507093035 | 44 | 0 | 0.0 | 0.0 | 0.00 | 0.47 | 0.09 | 94 | 1005.9 |
| 20260507092528 | 44 | 0 | 0.0 | 0.0 | 0.00 | 0.47 | 0.09 | 94 | 1006.0 |
| 20260507092025 | 44 | 0 | 0.0 | 0.0 | 0.00 | 0.47 | 0.09 | 94 | 1006.0 |
| 20260507091541 | 45 | 0 | 0.0 | 0.0 | 0.00 | 0.47 | 0.09 | 94 | 1006.1 |
| 20260507091026 | 45 | 0 | 0.0 | 0.0 | 0.00 | 0.47 | 0.09 | 94 | 1006.5 |
| 20260507090525 | 45 | 0 | 0.0 | 0.0 | 0.00 | 0.47 | 0.09 | 94 | 1006.4 |
| 20260507090039 | 45 | 0 | 0.0 | 0.0 | 0.00 | 0.47 | 0.09 | 94 | 1006.3 |
| 20260507085525 | 45 | 0 | 0.0 | 0.0 | 0.00 | 0.47 | 0.09 | 94 | 1006.1 |
| 20260507085027 | 45 | 0 | 0.0 | 0.0 | 0.00 | 0.47 | 0.09 | 94 | 1006.4 |
| 20260507084545 | 45 | 0 | 0.0 | 0.0 | 0.00 | 0.47 | 0.09 | 94 | 1006.6 |
| 20260507084026 | 45 | 0 | 0.0 | 0.0 | 0.00 | 0.47 | 0.09 | 94 | 1006.2 |
| 20260507083525 | 45 | 0 | 0.0 | 1.0 | 0.00 | 0.47 | 0.09 | 94 | 1006.2 |
| 20260507083051 | 45 | 0 | 0.0 | 1.0 | 0.00 | 0.47 | 0.09 | 94 | 1006.3 |
| 20260507082526 | 45 | 0 | 0.0 | 1.0 | 0.00 | 0.47 | 0.09 | 94 | 1006.1 |
| 20260507082025 | 46 | 0 | 0.0 | 1.0 | 0.00 | 0.47 | 0.09 | 94 | 1006.4 |
| 20260507081537 | 46 | 0 | 0.0 | 1.0 | 0.00 | 0.47 | 0.09 | 94 | 1006.2 |
| 20260507081027 | 46 | 0 | 0.0 | 0.0 | 0.00 | 0.47 | 0.09 | 94 | 1006.0 |
| 20260507080527 | 46 | 0 | 0.0 | 0.0 | 0.00 | 0.47 | 0.09 | 94 | 1006.0 |
| 20260507080050 | 46 | 0 | 0.0 | 4.0 | 0.00 | 0.47 | 0.09 | 94 | 1005.9 |
| 20260507075528 | 46 | 0 | 0.0 | 4.0 | 0.00 | 0.47 | 0.09 | 93 | 1006.1 |
| 20260507075026 | 46 | 0 | 0.0 | 4.0 | 0.00 | 0.47 | 0.09 | 94 | 1005.7 |
| 20260507074541 | 47 | 0 | 0.0 | 4.0 | 0.00 | 0.47 | 0.09 | 94 | 1006.0 |
| 20260507074025 | 47 | 0 | 0.0 | 4.0 | 0.00 | 0.47 | 0.09 | 95 | 1005.8 |
| 20260507073529 | 48 | 0 | 0.0 | 1.0 | 0.00 | 0.47 | 0.09 | 95 | 1005.8 |
| 20260507073049 | 48 | 0 | 0.0 | 1.0 | 0.00 | 0.47 | 0.09 | 95 | 1006.0 |
| 20260507072525 | 48 | 0 | 0.0 | 0.0 | 0.00 | 0.47 | 0.09 | 95 | 1005.8 |
| 20260507072025 | 48 | 0 | 0.0 | 0.0 | 0.00 | 0.47 | 0.09 | 95 | 1005.9 |
| 20260507071537 | 48 | 0 | 0.0 | 0.0 | 0.00 | 0.47 | 0.09 | 94 | 1005.9 |
| 20260507071025 | 48 | 0 | 0.0 | 0.0 | 0.00 | 0.47 | 0.09 | 95 | 1005.6 |
| 20260507070527 | 48 | 0 | 0.0 | 0.0 | 0.00 | 0.47 | 0.09 | 95 | 1005.6 |
| 20260507070043 | 48 | 0 | 0.0 | 0.0 | 0.00 | 0.47 | 0.09 | 95 | 1005.5 |
| 20260507065525 | 48 | 0 | 0.0 | 0.0 | 0.00 | 0.47 | 0.09 | 95 | 1005.4 |
| 20260507065025 | 48 | 0 | 0.0 | 0.0 | 0.00 | 0.47 | 0.09 | 95 | 1005.4 |
| 20260507064541 | 48 | 0 | 0.0 | 0.0 | 0.00 | 0.47 | 0.09 | 94 | 1005.5 |
| 20260507064026 | 48 | 0 | 0.0 | 0.0 | 0.00 | 0.47 | 0.09 | 94 | 1005.4 |
| 20260507063529 | 48 | 0 | 0.0 | 0.0 | 0.00 | 0.47 | 0.09 | 94 | 1005.3 |
| 20260507063046 | 49 | 0 | 0.0 | 0.0 | 0.00 | 0.47 | 0.09 | 94 | 1005.1 |
| 20260507062525 | 49 | 0 | 0.0 | 0.0 | 0.00 | 0.47 | 0.09 | 94 | 1005.1 |
| 20260507062025 | 49 | 0 | 0.0 | 0.0 | 0.00 | 0.47 | 0.09 | 95 | 1004.9 |
| 20260507061539 | 49 | 0 | 0.0 | 0.0 | 0.01 | 0.47 | 0.09 | 95 | 1005.0 |
| 20260507061028 | 49 | 0 | 0.0 | 0.0 | 0.01 | 0.47 | 0.09 | 95 | 1005.1 |
| 20260507060527 | 49 | 0 | 0.0 | 0.0 | 0.01 | 0.47 | 0.09 | 95 | 1005.2 |
| 20260507060036 | 49 | 0 | 0.0 | 0.0 | 0.01 | 0.47 | 0.09 | 94 | 1005.2 |
| 20260507055525 | 49 | 0 | 0.0 | 0.0 | 0.01 | 0.47 | 0.09 | 94 | 1005.1 |
| 20260507055026 | 49 | 0 | 0.0 | 0.0 | 0.01 | 0.47 | 0.09 | 94 | 1005.0 |
| 20260507054540 | 49 | 0 | 0.0 | 0.0 | 0.01 | 0.47 | 0.09 | 94 | 1005.0 |
| 20260507054025 | 49 | 0 | 0.0 | 0.0 | 0.01 | 0.47 | 0.09 | 94 | 1004.9 |
| 20260507053526 | 49 | 0 | 0.0 | 4.0 | 0.01 | 0.47 | 0.09 | 94 | 1004.9 |
| 20260507053037 | 50 | 0 | 0.0 | 5.0 | 0.02 | 0.47 | 0.09 | 94 | 1005.0 |
| 20260507052525 | 50 | 359 | 0.0 | 5.0 | 0.03 | 0.47 | 0.09 | 94 | 1004.9 |
| 20260507052026 | 51 | 301 | 0.0 | 2.0 | 0.05 | 0.47 | 0.09 | 95 | 1004.9 |
| 20260507051542 | 51 | 0 | 0.0 | 0.0 | 0.07 | 0.46 | 0.08 | 95 | 1005.0 |
| 20260507051025 | 51 | 0 | 0.0 | 7.0 | 0.08 | 0.46 | 0.08 | 95 | 1004.9 |
| 20260507050528 | 51 | 0 | 0.0 | 7.0 | 0.08 | 0.46 | 0.08 | 94 | 1004.9 |
| 20260507050040 | 51 | 0 | 1.0 | 7.0 | 0.08 | 0.46 | 0.08 | 94 | 1004.8 |
| 20260507045525 | 51 | 0 | 0.0 | 5.0 | 0.08 | 0.46 | 0.08 | 95 | 1004.9 |
| 20260507045026 | 52 | 0 | 0.0 | 6.0 | 0.08 | 0.46 | 0.08 | 95 | 1004.9 |
| 20260507044540 | 52 | 264 | 0.0 | 6.0 | 0.09 | 0.46 | 0.08 | 95 | 1004.9 |
| 20260507044025 | 52 | 0 | 0.0 | 5.0 | 0.09 | 0.46 | 0.08 | 95 | 1004.8 |
| 20260507043525 | 52 | 0 | 0.0 | 7.0 | 0.10 | 0.46 | 0.08 | 95 | 1004.8 |
| 20260507043038 | 52 | 0 | 0.0 | 8.0 | 0.09 | 0.45 | 0.07 | 95 | 1004.8 |
| 20260507042524 | 52 | 315 | 1.0 | 8.0 | 0.08 | 0.44 | 0.06 | 95 | 1004.8 |
| 20260507042025 | 53 | 305 | 4.0 | 8.0 | 0.05 | 0.41 | 0.03 | 95 | 1005.0 |
| 20260507041547 | 53 | 301 | 2.0 | 8.0 | 0.03 | 0.39 | 0.01 | 95 | 1005.2 |
| 20260507041025 | 53 | 0 | 0.0 | 2.0 | 0.02 | 0.38 | 0.00 | 95 | 1004.8 |
| 20260507040525 | 52 | 0 | 0.0 | 0.0 | 0.02 | 0.38 | 0.00 | 95 | 1004.4 |
| 20260507040041 | 52 | 0 | 0.0 | 0.0 | 0.02 | 0.38 | 0.00 | 95 | 1004.3 |
| 20260507035525 | 52 | 0 | 0.0 | 0.0 | 0.02 | 0.38 | 0.38 | 95 | 1004.2 |
| 20260507035026 | 52 | 0 | 0.0 | 0.0 | 0.02 | 0.38 | 0.38 | 95 | 1004.3 |
| 20260507034539 | 52 | 0 | 0.0 | 0.0 | 0.01 | 0.37 | 0.37 | 95 | 1004.2 |
| 20260507034025 | 52 | 0 | 0.0 | 4.0 | 0.01 | 0.37 | 0.37 | 95 | 1004.2 |
| 20260507033525 | 52 | 0 | 0.0 | 4.0 | 0.00 | 0.36 | 0.36 | 95 | 1004.3 |
| 20260507033039 | 52 | 0 | 0.0 | 0.0 | 0.00 | 0.36 | 0.36 | 95 | 1004.3 |
| 20260507032528 | 52 | 0 | 0.0 | 0.0 | 0.00 | 0.36 | 0.36 | 95 | 1003.8 |
| 20260507032025 | 52 | 0 | 0.0 | 0.0 | 0.00 | 0.36 | 0.36 | 95 | 1003.9 |
| 20260507031537 | 52 | 0 | 0.0 | 0.0 | 0.00 | 0.36 | 0.36 | 95 | 1003.8 |
| 20260507031028 | 52 | 0 | 0.0 | 0.0 | 0.00 | 0.36 | 0.36 | 95 | 1003.9 |
| 20260507030525 | 52 | 0 | 0.0 | 3.0 | 0.00 | 0.36 | 0.36 | 95 | 1003.7 |
| 20260507030036 | 52 | 0 | 0.0 | 3.0 | 0.00 | 0.36 | 0.36 | 95 | 1003.7 |
| 20260507025525 | 52 | 0 | 0.0 | 3.0 | 0.00 | 0.36 | 0.36 | 95 | 1003.8 |
| 20260507025025 | 52 | 0 | 0.0 | 3.0 | 0.00 | 0.36 | 0.36 | 95 | 1003.9 |
| 20260507024544 | 52 | 0 | 0.0 | 3.0 | 0.00 | 0.36 | 0.36 | 95 | 1003.9 |
| 20260507024024 | 52 | 0 | 0.0 | 4.0 | 0.01 | 0.36 | 0.36 | 95 | 1004.0 |
| 20260507023536 | 52 | 0 | 0.0 | 4.0 | 0.01 | 0.36 | 0.36 | 95 | 1004.0 |
| 20260507023042 | 52 | 0 | 0.0 | 3.0 | 0.02 | 0.36 | 0.36 | 95 | 1004.0 |
| 20260507022529 | 52 | 0 | 0.0 | 1.0 | 0.02 | 0.36 | 0.36 | 95 | 1004.0 |
| 20260507022026 | 52 | 0 | 0.0 | 3.0 | 0.02 | 0.36 | 0.36 | 95 | 1004.2 |
| 20260507021537 | 52 | 0 | 0.0 | 3.0 | 0.02 | 0.36 | 0.36 | 95 | 1004.2 |
| 20260507021028 | 52 | 0 | 0.0 | 4.0 | 0.02 | 0.36 | 0.36 | 94 | 1004.3 |
| 20260507020526 | 52 | 0 | 0.0 | 4.0 | 0.03 | 0.36 | 0.36 | 94 | 1004.2 |
| 20260507020055 | 52 | 0 | 0.0 | 3.0 | 0.03 | 0.36 | 0.36 | 94 | 1004.2 |
| 20260507015524 | 52 | 0 | 0.0 | 7.0 | 0.03 | 0.36 | 0.36 | 94 | 1004.3 |
| 20260507015024 | 52 | 0 | 1.0 | 7.0 | 0.03 | 0.36 | 0.36 | 94 | 1004.4 |
| 20260507014544 | 52 | 0 | 0.0 | 3.0 | 0.03 | 0.36 | 0.36 | 94 | 1004.5 |
| 20260507014026 | 52 | 0 | 0.0 | 4.0 | 0.02 | 0.35 | 0.35 | 94 | 1004.5 |
| 20260507013525 | 52 | 0 | 0.0 | 7.0 | 0.02 | 0.35 | 0.35 | 94 | 1004.5 |
| 20260507013037 | 52 | 0 | 0.0 | 8.0 | 0.01 | 0.34 | 0.34 | 94 | 1004.6 |
| 20260507012525 | 52 | 0 | 0.0 | 9.0 | 0.01 | 0.34 | 0.34 | 94 | 1004.6 |
| 20260507012025 | 52 | 0 | 0.0 | 9.0 | 0.01 | 0.34 | 0.34 | 95 | 1004.7 |
| 20260507011536 | 52 | 0 | 0.0 | 7.0 | 0.01 | 0.34 | 0.34 | 94 | 1004.7 |
| 20260507011024 | 52 | 199 | 0.0 | 7.0 | 0.01 | 0.34 | 0.34 | 94 | 1004.6 |
| 20260507010526 | 52 | 0 | 0.0 | 7.0 | 0.00 | 0.33 | 0.33 | 94 | 1004.7 |
| 20260507010042 | 52 | 0 | 0.0 | 8.0 | 0.00 | 0.33 | 0.33 | 94 | 1004.7 |
| 20260507005528 | 52 | 147 | 1.0 | 8.0 | 0.00 | 0.33 | 0.33 | 94 | 1004.7 |
| 20260507005024 | 52 | 0 | 0.0 | 8.0 | 0.00 | 0.33 | 0.33 | 94 | 1004.7 |
| 20260507004543 | 52 | 0 | 0.0 | 8.0 | 0.00 | 0.33 | 0.33 | 94 | 1004.9 |
| 20260507004026 | 52 | 180 | 2.0 | 8.0 | 0.00 | 0.33 | 0.33 | 94 | 1004.8 |
| 20260507003532 | 52 | 215 | 1.0 | 8.0 | 0.00 | 0.33 | 0.33 | 94 | 1004.8 |
| 20260506214024 | 53 | 171 | 1.0 | 7.0 | 0.08 | 0.32 | 0.32 | 94 | 1005.8 |
| 20260506213525 | 53 | 243 | 1.0 | 8.0 | 0.09 | 0.32 | 0.32 | 94 | 1005.8 |
| 20260506213101 | 53 | 0 | 1.0 | 8.0 | 0.09 | 0.32 | 0.32 | 93 | 1005.9 |
| 20260506212525 | 53 | 0 | 1.0 | 9.0 | 0.08 | 0.31 | 0.31 | 94 | 1006.0 |
| 20260506212025 | 54 | 169 | 1.0 | 9.0 | 0.08 | 0.31 | 0.31 | 94 | 1005.9 |
| 20260506211601 | 54 | 0 | 4.0 | 9.0 | 0.08 | 0.31 | 0.31 | 94 | 1006.0 |
| 20260506211025 | 54 | 0 | 1.0 | 6.0 | 0.08 | 0.30 | 0.30 | 94 | 1006.0 |
| 20260506210525 | 54 | 0 | 1.0 | 7.0 | 0.07 | 0.28 | 0.28 | 94 | 1006.0 |
| 20260506210041 | 54 | 0 | 0.0 | 7.0 | 0.07 | 0.27 | 0.27 | 94 | 1006.0 |
| 20260506205524 | 54 | 0 | 0.0 | 5.0 | 0.07 | 0.26 | 0.26 | 93 | 1006.1 |
| 20260506205024 | 54 | 0 | 1.0 | 5.0 | 0.07 | 0.25 | 0.25 | 93 | 1006.0 |
| 20260506204546 | 54 | 141 | 0.0 | 5.0 | 0.08 | 0.24 | 0.24 | 93 | 1006.1 |
| 20260506204025 | 54 | 0 | 0.0 | 9.0 | 0.08 | 0.24 | 0.24 | 93 | 1006.1 |
| 20260506203524 | 54 | 205 | 0.0 | 9.0 | 0.07 | 0.23 | 0.23 | 93 | 1006.1 |
| 20260506203045 | 54 | 0 | 1.0 | 9.0 | 0.08 | 0.23 | 0.23 | 93 | 1006.0 |
| 20260506202525 | 54 | 0 | 0.0 | 6.0 | 0.09 | 0.23 | 0.23 | 94 | 1006.4 |
| 20260506202024 | 54 | 0 | 0.0 | 6.0 | 0.13 | 0.23 | 0.23 | 93 | 1006.2 |
| 20260506201550 | 54 | 0 | 0.0 | 6.0 | 0.17 | 0.23 | 0.23 | 93 | 1006.1 |
| 20260506201026 | 54 | 202 | 0.0 | 5.0 | 0.17 | 0.22 | 0.22 | 93 | 1006.2 |
| 20260506200524 | 54 | 0 | 0.0 | 6.0 | 0.17 | 0.21 | 0.21 | 93 | 1006.3 |
| 20260506200036 | 54 | 0 | 0.0 | 6.0 | 0.17 | 0.20 | 0.20 | 93 | 1006.5 |
| 20260506195525 | 54 | 0 | 0.0 | 6.0 | 0.16 | 0.19 | 0.19 | 93 | 1006.6 |
| 20260506195025 | 54 | 0 | 0.0 | 3.0 | 0.15 | 0.17 | 0.17 | 93 | 1006.7 |
| 20260506194546 | 54 | 160 | 0.0 | 3.0 | 0.15 | 0.16 | 0.16 | 93 | 1006.7 |
| 20260506194026 | 54 | 0 | 0.0 | 3.0 | 0.16 | 0.16 | 0.16 | 93 | 1006.5 |
| 20260506193524 | 53 | 0 | 0.0 | 4.0 | 0.16 | 0.16 | 0.16 | 93 | 1006.5 |
| 20260506193040 | 54 | 0 | 0.0 | 4.0 | 0.15 | 0.15 | 0.15 | 92 | 1006.7 |
| 20260506192526 | 54 | 0 | 0.0 | 3.0 | 0.13 | 0.13 | 0.13 | 92 | 1006.9 |
| 20260506192024 | 54 | 0 | 0.0 | 1.0 | 0.09 | 0.09 | 0.09 | 92 | 1007.2 |
| 20260506191545 | 54 | 0 | 0.0 | 3.0 | 0.06 | 0.06 | 0.06 | 91 | 1007.3 |
| 20260506191029 | 54 | 0 | 0.0 | 3.0 | 0.04 | 0.04 | 0.04 | 91 | 1007.2 |
| 20260506190529 | 54 | 0 | 0.0 | 3.0 | 0.04 | 0.04 | 0.04 | 91 | 1006.8 |
| 20260506190037 | 54 | 0 | 0.0 | 3.0 | 0.03 | 0.03 | 0.03 | 90 | 1006.9 |
| 20260506185528 | 54 | 0 | 0.0 | 6.0 | 0.03 | 0.03 | 0.03 | 89 | 1006.9 |
| 20260506185024 | 54 | 0 | 0.0 | 7.0 | 0.02 | 0.02 | 0.02 | 89 | 1006.9 |
| 20260506184536 | 54 | 172 | 1.0 | 7.0 | 0.01 | 0.01 | 0.01 | 87 | 1006.8 |
| 20260506184025 | 55 | 164 | 0.0 | 8.0 | 0.00 | 0.00 | 0.00 | 86 | 1006.8 |
| 20260506183527 | 55 | 0 | 2.0 | 12.0 | 0.00 | 0.00 | 0.00 | 84 | 1006.8 |
| 20260506183056 | 56 | 159 | 0.0 | 13.0 | 0.00 | 0.00 | 0.00 | 82 | 1006.7 |
| 20260506182524 | 56 | 151 | 3.0 | 13.0 | 0.00 | 0.00 | 0.00 | 82 | 1006.8 |
| 20260506182024 | 56 | 0 | 1.0 | 10.0 | 0.00 | 0.00 | 0.00 | 81 | 1006.8 |
| 20260506181539 | 57 | 222 | 2.0 | 10.0 | 0.00 | 0.00 | 0.00 | 80 | 1006.8 |
| 20260506181025 | 57 | 0 | 0.0 | 10.0 | 0.00 | 0.00 | 0.00 | 80 | 1006.9 |
| 20260506180528 | 57 | 191 | 1.0 | 10.0 | 0.00 | 0.00 | 0.00 | 80 | 1006.8 |
| 20260506180044 | 57 | 142 | 0.0 | 6.0 | 0.00 | 0.00 | 0.00 | 80 | 1006.7 |
| 20260506175525 | 57 | 0 | 0.0 | 6.0 | 0.00 | 0.00 | 0.00 | 79 | 1006.7 |
| 20260506175024 | 58 | 0 | 1.0 | 6.0 | 0.00 | 0.00 | 0.00 | 80 | 1006.9 |
| 20260506174542 | 58 | 151 | 0.0 | 6.0 | 0.00 | 0.00 | 0.00 | 80 | 1007.0 |
| 20260506174024 | 58 | 0 | 0.0 | 8.0 | 0.00 | 0.00 | 0.00 | 79 | 1007.0 |
| 20260506173524 | 58 | 0 | 2.0 | 8.0 | 0.00 | 0.00 | 0.00 | 79 | 1007.1 |
| 20260506173038 | 58 | 0 | 0.0 | 8.0 | 0.00 | 0.00 | 0.00 | 79 | 1007.3 |
| 20260506172523 | 58 | 0 | 0.0 | 8.0 | 0.00 | 0.00 | 0.00 | 78 | 1007.3 |
| 20260506172023 | 59 | 0 | 0.0 | 6.0 | 0.00 | 0.00 | 0.00 | 78 | 1007.4 |
| 20260506171539 | 59 | 173 | 0.0 | 6.0 | 0.00 | 0.00 | 0.00 | 78 | 1007.5 |
| 20260506171028 | 59 | 0 | 0.0 | 9.0 | 0.00 | 0.00 | 0.00 | 78 | 1007.6 |
| 20260506170526 | 59 | 0 | 0.0 | 9.0 | 0.00 | 0.00 | 0.00 | 78 | 1007.7 |
| 20260506165526 | 60 | 173 | 0.0 | 6.0 | 0.00 | 0.00 | 0.00 | 77 | 1007.7 |
| 20260506165026 | 60 | 0 | 1.0 | 6.0 | 0.00 | 0.00 | 0.00 | 78 | 1007.8 |
| 20260506164539 | 60 | 174 | 0.0 | 7.0 | 0.00 | 0.00 | 0.00 | 77 | 1008.0 |
| 20260506164027 | 60 | 174 | 1.0 | 8.0 | 0.00 | 0.00 | 0.00 | 78 | 1008.0 |
| 20260506163525 | 59 | 0 | 0.0 | 8.0 | 0.00 | 0.00 | 0.00 | 78 | 1008.2 |
| 20260506163044 | 59 | 229 | 2.0 | 8.0 | 0.00 | 0.00 | 0.00 | 78 | 1008.2 |
| 20260506162526 | 60 | 0 | 0.0 | 8.0 | 0.00 | 0.00 | 0.00 | 78 | 1008.4 |
| 20260506162028 | 59 | 148 | 0.0 | 8.0 | 0.00 | 0.00 | 0.00 | 78 | 1008.5 |
| 20260506161541 | 59 | 142 | 0.0 | 7.0 | 0.00 | 0.00 | 0.00 | 79 | 1008.6 |
| 20260506161023 | 59 | 0 | 0.0 | 6.0 | 0.00 | 0.00 | 0.00 | 79 | 1008.5 |
| 20260506160525 | 59 | 0 | 0.0 | 6.0 | 0.00 | 0.00 | 0.00 | 79 | 1008.8 |
| 20260506160040 | 59 | 0 | 1.0 | 6.0 | 0.00 | 0.00 | 0.00 | 79 | 1008.8 |
| 20260506155527 | 59 | 0 | 0.0 | 9.0 | 0.00 | 0.00 | 0.00 | 79 | 1008.9 |
| 20260506155026 | 59 | 155 | 2.0 | 9.0 | 0.00 | 0.00 | 0.00 | 79 | 1008.8 |
| 20260506154541 | 59 | 0 | 1.0 | 7.0 | 0.00 | 0.00 | 0.00 | 79 | 1008.9 |
| 20260506154023 | 59 | 0 | 0.0 | 7.0 | 0.00 | 0.00 | 0.00 | 79 | 1009.0 |
| 20260506153526 | 59 | 0 | 0.0 | 5.0 | 0.00 | 0.00 | 0.00 | 80 | 1009.2 |
| 20260506153040 | 59 | 0 | 0.0 | 5.0 | 0.00 | 0.00 | 0.00 | 79 | 1009.1 |
| 20260506152525 | 59 | 0 | 0.0 | 7.0 | 0.00 | 0.00 | 0.00 | 78 | 1009.2 |
| 20260506152028 | 59 | 0 | 0.0 | 7.0 | 0.00 | 0.00 | 0.00 | 78 | 1008.9 |
| 20260506151544 | 59 | 130 | 0.0 | 6.0 | 0.00 | 0.00 | 0.00 | 79 | 1008.9 |
| 20260506151025 | 59 | 134 | 0.0 | 4.0 | 0.00 | 0.00 | 0.00 | 78 | 1008.9 |
| 20260506150525 | 59 | 0 | 1.0 | 4.0 | 0.00 | 0.00 | 0.00 | 78 | 1008.9 |
| 20260506150038 | 60 | 0 | 0.0 | 4.0 | 0.00 | 0.00 | 0.00 | 78 | 1008.8 |
| 20260506145526 | 60 | 145 | 0.0 | 4.0 | 0.00 | 0.00 | 0.00 | 78 | 1008.8 |
| 20260506145026 | 60 | 138 | 0.0 | 4.0 | 0.00 | 0.00 | 0.00 | 77 | 1008.7 |
| 20260506144548 | 60 | 0 | 1.0 | 4.0 | 0.00 | 0.00 | 0.00 | 78 | 1008.5 |
| 20260506144028 | 60 | 0 | 0.0 | 4.0 | 0.00 | 0.00 | 0.00 | 77 | 1008.4 |
| 20260506143526 | 60 | 0 | 0.0 | 5.0 | 0.00 | 0.00 | 0.00 | 77 | 1008.3 |
| 20260506143042 | 60 | 0 | 0.0 | 5.0 | 0.00 | 0.00 | 0.00 | 77 | 1008.5 |
| 20260506142525 | 60 | 0 | 0.0 | 8.0 | 0.00 | 0.00 | 0.00 | 77 | 1008.5 |